User: anonymous   Login
Location: Bazugues
(43.4465°N, 0.3432°E)
Time: 13:23:31
(UTC+00:00)
Language:

Cosmos 1703 - Orbit

View from above orbital plane
View from above orbital plane
View from above satellite
View from above satellite

Ground track
Ground track

The orbit is defined by the following mean orbital elements,

1 16262U          26067.13504821 +.00000000 +00000-0 +65786-3 0 00000
2 16262  82.4605 323.2481 0006138  22.1093 338.0422 15.50520669    03
Epoch (UTC): 08 March 2026 03:14:28
Eccentricity: 0.0006138
inclination: 82.4605°
perigee height: 411 km
apogee height: 419 km
right ascension of ascending node: 323.2481°
argument of perigee: 22.1093°
revolutions per day: 15.50520669
mean anomaly at epoch: 338.0422°

The dashed part of the orbit path shows where the satellite is in the earth's shadow,  

DLR